www.pogodaiklimat.ru

Погода и климат >> Архив погоды >> Швейцария >> Лауфенбург


ПОГОДА в Лауфенбурге

  • Прогноз погоды в Лауфенбурге
  • Монитор погоды в Лауфенбурге

АРХИВ ПОГОДЫ в Лауфенбурге

Время (UTC), дата Ветер
(напр.,м/с)
 
Видим.   Явления Облачность Т
(С)
Тd
(С)
f
(%)
Тe
(С)
Тes
(С)
Комфортность P
(гПа)
Po
(гПа)
Тmin
(С)
Tmax
(С)
R
(мм)
R24
(мм)
S
(см)
01 13.07 В 2
{8}
н/о н/о +14.9 +13.7 93 +15 +15 1016.6 968.8 4
02 13.07 Ю 2
{5}
н/о н/о +14.2 +13.0 92 +14 +14 1016.5 968.6 3
03 13.07 ЮЗ 2
{8}
н/о н/о +14.0 +13.5 97 +13 +13 1017.1 969.1 0.2
04 13.07 ЮЗ 2
{4}
н/о н/о +14.1 +13.5 96 +14 +14 1017.3 969.3
05 13.07 С 1
{2}
н/о н/о +14.1 +13.6 97 +15 +15 1017.6 969.6
06 13.07 СЗ 1
{8}
н/о н/о +14.7 +13.4 92 +16 +16 1017.9 970.0 +13.7
07 13.07 В 1
{2}
н/о н/о +15.9 +14.0 88 +17 +17 1017.9 970.2
08 13.07 В 2
{4}
н/о н/о +17.4 +13.0 75 +18 +18 1018.0 970.5
09 13.07 В 4
{6}
н/о н/о +18.5 +12.1 66 +19 +19 1017.7 970.4
10 13.07 СВ 3
{6}
н/о н/о +17.9 +12.3 70 +18 +18 1018.0 970.6
11 13.07 В 1
{5}
н/о н/о +18.3 +12.6 69 +20 +20 1017.9 970.6
12 13.07 СВ 3
{6}
н/о н/о +19.3 +11.7 61 +21 +21 комфорт 1017.6 970.5
13 13.07 СВ 3
{7}
н/о н/о +20.2 +12.1 60 +22 +22 комфорт 1017.2 970.2
14 13.07 СВ 4
{7}
н/о н/о +20.3 +11.2 56 +22 +22 комфорт 1016.8 969.9
15 13.07 СВ 3
{7}
н/о н/о +21.2 +11.0 52 +23 +23 комфорт 1016.7 969.9
16 13.07 В 3
{5}
н/о н/о +20.2 +10.4 53 +22 +22 комфорт 1016.5 969.6
17 13.07 СВ 2
{4}
н/о н/о +20.5 +10.1 51 +23 +23 комфорт 1016.5 969.6
18 13.07 СВ 2
{7}
н/о н/о +20.0 +10.9 56 +22 +22 комфорт 1016.6 969.6 +21.2
19 13.07 СЗ 1
{2}
н/о н/о +17.0 +13.5 80 +18 +18 1017.2 969.7
20 13.07 Ю 1
{3}
н/о н/о +15.4 +13.1 86 +16 +16 1018.0 970.2
21 13.07 З 1
{3}
н/о н/о +14.0 +12.5 91 +14 +14 1018.5 970.4
22 13.07 штиль 0
{2}
н/о н/о +13.6 +12.4 92 +13 +13 1018.4 970.3
23 13.07 СВ 1
{2}
н/о н/о +12.9 +11.8 93 +13 +13 1018.5 970.3
00 14.07 З 2
{3}
н/о н/о +13.0 +12.3 96 +12 +12 1018.2 970.0
01 14.07 ЮВ 1
{2}
н/о н/о +12.7 +12.1 96 +13 +13 1017.8 969.6
02 14.07 Ю 1
{2}
н/о н/о +12.0 +11.7 98 +12 +12 1017.7 969.3
03 14.07 ЮВ 1
{2}
н/о н/о +11.8 +11.7 99 +12 +12 1017.4 969.0
04 14.07 ЮЗ 1
{2}
н/о н/о +11.5 +11.3 99 +11 +11 1017.2 968.8
05 14.07 З 2
{3}
н/о н/о +12.0 +11.6 97 +11 +11 1017.0 968.7
06 14.07 ЮЗ 1
{3}
н/о н/о +13.5 +12.2 92 +14 +14 1016.5 968.5 +11.2
07 14.07 СВ 1
{2}
н/о н/о +16.2 +12.4 78 +17 +17 1016.0 968.4
08 14.07 З 1
{2}
н/о н/о +18.2 +11.7 66 +20 +20 1015.4 968.2
09 14.07 СВ 3
{5}
н/о н/о +19.9 +12.3 62 +22 +22 комфорт 1014.8 967.9
10 14.07 СВ 5
{8}
н/о н/о +21.0 +13.3 61 +24 +24 комфорт 1014.1 967.4
11 14.07 С 4
{8}
н/о н/о +22.5 +12.9 55 +25 +25 комфорт 1013.4 967.0
12 14.07 С 5
{9}
н/о н/о +22.9 +11.7 49 +25 +25 комфорт 1012.7 966.4
13 14.07 С 5
{8}
н/о н/о +23.4 +11.5 47 +26 +26 жарко 1012.0 965.8
14 14.07 С 5
{9}
н/о н/о +24.0 +11.7 46 +26 +26 жарко 1011.4 965.3
15 14.07 С 4
{9}
н/о н/о +24.1 +11.1 44 +25 +25 комфорт 1010.8 964.8
16 14.07 С 5
{9}
н/о н/о +23.7 +10.1 42 +25 +25 комфорт 1010.7 964.6
17 14.07
{10}
н/о н/о +22.9 +10.0 44 1010.9 964.7
18 14.07 С 4
{10}
н/о н/о +21.1 +11.4 54 +23 +23 комфорт 1011.4 964.9 +24.2
19 14.07 В 3
{9}
н/о н/о +19.6 +12.2 62 +21 +21 комфорт 1013.0 966.1
20 14.07 З 3
{10}
н/о н/о +15.9 +13.5 86 +16 +16 1014.5 967.0
21 14.07 Ю 3
{10}
н/о н/о +15.5 +13.3 87 +15 +15 1014.6 967.0
22 14.07 ЮЗ 2
{4}
н/о н/о +15.4 +13.8 90 +15 +15 1015.1 967.4
23 14.07 ЮЗ 2
{4}
н/о н/о +15.0 +13.7 92 +15 +15 1015.0 967.3
00 15.07 ЮЗ 2
{10}
н/о н/о +14.8 +13.7 93 +14 +14 1014.4 966.7
01 15.07 Ю 1
{3}
н/о н/о +14.9 +13.7 93 +15 +15 1014.2 966.5
02 15.07 Ю 2
{3}
н/о н/о +14.8 +13.8 94 +14 +14 1014.4 966.7
03 15.07 С 1
{3}
н/о н/о +14.6 +13.8 95 +16 +16 1013.8 966.1
04 15.07 Ю 2
{2}
н/о н/о +14.7 +13.7 94 +15 +15 1013.9 966.2
05 15.07 З 1
{2}
н/о н/о +14.9 +13.7 93 +15 +15 1013.8 966.1
06 15.07 ЮЗ 1
{3}
н/о н/о +15.5 +13.7 89 +16 +16 1014.3 966.7 +14.6
07 15.07 СЗ 1
{2}
н/о н/о +16.4 +13.0 80 +18 +18 1014.4 966.9
08 15.07 Ю 1
{2}
н/о н/о +17.4 +13.3 77 +18 +18 1014.3 967.0
09 15.07 Ю 3
{4}
н/о н/о +18.0 +13.8 76 +18 +18 1014.4 967.2
10 15.07 Ю 2
{6}
н/о н/о +18.8 +14.0 74 +21 +21 комфорт 1014.2 967.2
11 15.07 СВ 2
{5}
н/о н/о +21.0 +13.7 63 +24 +24 комфорт 1013.6 966.9
12 15.07
{6}
н/о н/о +21.7 +13.0 58 1013.3 966.8
13 15.07 С 3
{7}
н/о н/о +22.0 +12.9 56 +25 +25 комфорт 1013.1 966.6
14 15.07
{8}
н/о н/о +23.1 +12.9 53 1012.8 966.5
15 15.07 С 4
{8}
н/о н/о +22.5 +12.5 53 +25 +25 комфорт 1012.9 966.5
16 15.07 С 4
{9}
н/о н/о +23.1 +11.6 48 +25 +25 комфорт 1012.6 966.3
17 15.07 С 4
{8}
н/о н/о +23.3 +11.3 47 +26 +26 жарко 1012.9 966.6
18 15.07 З 2
{9}
н/о н/о +21.4 +12.8 58 +24 +24 комфорт 1013.7 967.1 +23.6
19 15.07 ЮЗ 2
{6}
н/о н/о +18.8 +13.7 72 +20 +20 1014.7 967.6
20 15.07 ЮЗ 3
{5}
н/о н/о +18.1 +13.8 76 +19 +19 1015.6 968.4
21 15.07 Ю 2
{6}
н/о н/о +17.1 +14.0 82 +18 +18 1016.3 968.9
22 15.07 Ю 2
{3}
н/о н/о +16.7 +13.8 83 +17 +17 1016.7 969.2
23 15.07 ЮЗ 1
{3}
н/о н/о +15.5 +13.1 86 +16 +16 1017.1 969.4
00 16.07 З 1
{6}
н/о н/о +13.8 +12.5 92 +15 +15 1017.5 969.5
01 16.07 Ю 1
{2}
н/о н/о +13.3 +12.5 95 +13 +13 1017.8 969.7
02 16.07 З 2
{3}
н/о н/о +12.9 +12.3 96 +12 +12 1018.1 969.9
03 16.07 СЗ 1
{4}
н/о н/о +12.4 +11.7 95 +13 +13 1018.3 970.0
04 16.07 ЮЗ 1
{2}
н/о н/о +11.8 +11.6 99 +11 +11 1018.3 969.9
05 16.07 ЮЗ 2
{2}
н/о н/о +13.2 +13.0 99 +13 +13 1018.2 970.0
06 16.07 ЮЗ 1
{4}
н/о н/о +15.6 +13.5 87 +17 +17 1017.9 970.1 +11.4
07 16.07 Ю 1
{2}
н/о н/о +17.0 +12.9 77 +19 +19 1017.7 970.2
08 16.07 В 1
{3}
н/о н/о +18.7 +13.4 71 +21 +21 комфорт 1017.2 970.0
09 16.07 З 2
{3}
н/о н/о +20.0 +13.3 65 +23 +23 комфорт 1016.6 969.6
10 16.07 СВ 3
{6}
н/о н/о +21.2 +14.3 65 +24 +24 комфорт 1016.4 969.6
11 16.07 СВ 4
{8}
н/о н/о +22.3 +14.7 62 +26 +26 жарко 1016.1 969.5
12 16.07 СВ 4
{8}
н/о н/о +23.3 +12.9 52 +26 +26 жарко 1015.4 969.0
13 16.07 СВ 4
{7}
н/о н/о +23.7 +12.0 48 +25 +25 комфорт 1014.9 968.6
14 16.07 СВ 4
{7}
н/о н/о +24.4 +12.0 46 +26 +26 жарко 1014.6 968.4
15 16.07 СВ 4
{7}
н/о н/о +24.7 +11.0 42 +26 +26 жарко 1014.3 968.2
16 16.07 СВ 3
{7}
н/о н/о +24.7 +10.2 40 +26 +26 жарко 1014.0 967.9
17 16.07 СВ 3
{6}
н/о н/о +24.5 +7.8 34 +25 +25 комфорт 1014.0 967.9
18 16.07 В 1
{7}
н/о н/о +23.6 +9.2 40 +24 +24 комфорт 1014.2 967.9 +24.9
19 16.07 З 2
{3}
н/о н/о +19.5 +12.0 62 +21 +21 комфорт 1015.0 968.0
20 16.07 Ю 2
{3}
н/о н/о +16.3 +12.8 80 +17 +17 1015.6 968.1
21 16.07 З 1
{3}
н/о н/о +15.8 +12.2 79 +17 +17 1015.9 968.3
22 16.07 ЮЗ 3
{4}
н/о н/о +15.5 +11.9 79 +15 +15 1016.1 968.4
23 16.07 ЮЗ 2
{3}
н/о н/о +14.0 +12.0 88 +13 +13 1016.4 968.4
00 17.07 Ю 1
{4}
н/о н/о +14.1 +12.1 88 +14 +14 1016.4 968.5
01 17.07 ЮЗ 2
{2}
н/о н/о +12.9 +11.4 91 +12 +12 1016.5 968.4
02 17.07 ЮЗ 1
{3}
н/о н/о +12.5 +11.5 94 +12 +12 1016.2 968.0
03 17.07 ЮЗ 1
{3}
н/о н/о +12.3 +11.2 93 +12 +12 1016.0 967.8
04 17.07 В 1
{2}
н/о н/о +11.9 +11.1 95 +12 +12 1016.2 967.9
05 17.07 З 1
{2}
н/о н/о +13.1 +12.6 97 +13 +13 1015.7 967.6
06 17.07 ЮЗ 2
{3}
н/о н/о +16.5 +13.4 82 +17 +17 1015.0 967.5 +11.6
07 17.07 Ю 2
{4}
н/о н/о +19.4 +12.8 66 +21 +21 комфорт 1014.4 967.4
08 17.07 ЮЗ 3
{5}
н/о н/о +21.6 +13.1 58 +24 +24 комфорт 1013.6 967.0
09 17.07 СВ 2
{5}
н/о н/о +22.9 +13.6 56 +26 +26 жарко 1013.0 966.7
10 17.07 СВ 4
{7}
н/о н/о +23.8 +12.6 49 +26 +26 жарко 1012.8 966.6
11 17.07 В 3
{8}
н/о н/о +25.0 +13.1 48 +27 +27 жарко 1012.4 966.4
12 17.07 В 3
{8}
н/о н/о +25.5 +12.5 44 +27 +27 жарко 1012.0 966.1
13 17.07 СВ 3
{8}
н/о н/о +25.4 +12.2 44 +27 +27 жарко 1011.6 965.7
14 17.07 СВ 3
{7}
н/о н/о +26.4 +12.9 43 +28 +28 жарко 1011.1 965.4
15 17.07 СВ 3
{8}
н/о н/о +25.7 +12.5 44 +27 +27 жарко 1010.9 965.1
16 17.07 СВ 2
{4}
н/о н/о +25.5 +13.3 47 +28 +28 жарко 1010.4 964.6
17 17.07 В 1
{3}
н/о н/о +26.5 +12.7 42 +28 +28 жарко 1010.1 964.5
18 17.07 З 1
{8}
н/о н/о +25.9 +11.6 41 +27 +27 жарко 1010.2 964.5 +26.7
19 17.07 З 2
{3}
н/о н/о +21.0 +13.9 64 +25 +25 комфорт 1011.2 964.7
20 17.07 ЮЗ 2
{3}
н/о н/о +17.9 +13.2 74 +19 +19 1012.1 965.0
21 17.07 ЮВ 2
{3}
н/о н/о +18.1 +11.6 66 +19 +19 1012.3 965.2
22 17.07 СЗ 1
{3}
н/о н/о +17.2 +12.4 73 +18 +18 1012.7 965.5
23 17.07 В 1
{2}
н/о н/о +16.4 +12.6 78 +18 +18 1013.0 965.6
00 18.07 СЗ 1
{3}
н/о н/о +14.3 +12.1 87 +15 +15 1013.5 965.7
01 18.07 ЮЗ 1
{2}
н/о н/о +13.5 +12.1 91 +14 +14 1013.6 965.7
02 18.07 З 1
{2}
н/о н/о +13.0 +12.0 94 +13 +13 1013.6 965.6
03 18.07 В 1
{2}
н/о н/о +12.6 +11.6 94 +13 +13 1013.7 965.6
04 18.07 ЮЗ 2
{2}
н/о н/о +12.4 +11.4 94 +12 +12 1013.8 965.7
05 18.07 З 2
{3}
н/о н/о +14.0 +12.8 92 +14 +14 1013.6 965.8
06 18.07 В 1
{3}
н/о н/о +16.3 +14.0 86 +18 +18 1013.6 966.2 +12.3
07 18.07 ЮЗ 3
{4}
н/о н/о +19.2 +13.6 70 +21 +21 комфорт 1013.4 966.5
08 18.07 Ю 2
{4}
н/о н/о +21.1 +14.6 66 +24 +24 комфорт 1013.1 966.5
09 18.07 СВ 2
{4}
н/о н/о +22.7 +13.9 58 +26 +26 жарко 1012.7 966.4
10 18.07 СВ 3
{5}
н/о н/о +24.1 +14.8 56 +27 +27 жарко 1012.4 966.3
11 18.07 СВ 3
{6}
н/о н/о +24.9 +13.0 48 +27 +27 жарко 1012.3 966.3
12 18.07 СВ 4
{8}
н/о н/о +25.7 +13.0 45 +28 +28 жарко 1011.8 966.0
13 18.07 СВ 4
{7}
н/о н/о +25.8 +12.9 45 +28 +28 жарко 1011.8 966.0
14 18.07 СВ 3
{7}
н/о н/о +26.2 +11.3 39 +27 +27 жарко 1011.6 965.9
15 18.07 В 2
{7}
н/о н/о +26.9 +10.0 35 +27 +27 жарко 1011.2 965.6
16 18.07 СВ 2
{5}
н/о н/о +26.2 +8.7 33 +26 +26 жарко 1011.1 965.4
17 18.07 СВ 2
{5}
н/о н/о +25.7 +8.9 35 +26 +26 жарко 1011.4 965.6
18 18.07 СВ 2
{7}
н/о н/о +24.8 +9.3 37 +25 +25 комфорт 1011.9 965.9 +26.9
19 18.07 З 2
{3}
н/о н/о +20.6 +12.6 60 +24 +24 комфорт 1013.0 966.3
20 18.07 Ю 2
{3}
н/о н/о +18.6 +12.4 67 +20 +20 1014.0 966.9
21 18.07 З 2
{3}
н/о н/о +17.7 +11.9 69 +18 +18 1014.4 967.2
22 18.07 З 2
{4}
н/о н/о +17.1 +11.7 71 +18 +18 1014.7 967.3
23 18.07 ЮЗ 2
{3}
н/о н/о +16.8 +11.6 71 +17 +17 1015.1 967.7
00 19.07 ЮЗ 2
{4}
н/о н/о +16.3 +11.8 75 +17 +17 1015.5 968.0
01 19.07 ЮЗ 2
{4}
н/о н/о +16.6 +11.7 73 +17 +17 1015.5 968.0
02 19.07 ЮЗ 2
{4}
н/о н/о +17.3 +10.7 65 +18 +18 1015.6 968.2
03 19.07 ЮЗ 2
{5}
н/о н/о +17.0 +10.8 67 +17 +17 1015.8 968.4
04 19.07 ЮЗ 2
{4}
н/о н/о +16.7 +10.7 68 +17 +17 1016.1 968.6
05 19.07 Ю 1
{3}
н/о н/о +16.6 +12.2 75 +17 +17 1016.1 968.6
06 19.07 Ю 1
{5}
н/о н/о +19.0 +11.9 63 +21 +21 комфорт 1016.1 969.0 +16.2
07 19.07 Ю 2
{3}
н/о н/о +20.3 +11.5 57 +23 +23 комфорт 1016.1 969.2
08 19.07 ЮЗ 3
{5}
н/о н/о +22.4 +11.1 49 +25 +25 комфорт 1015.7 969.2
09 19.07 ЮЗ 2
{5}
н/о н/о +24.1 +11.8 46 +26 +26 жарко 1015.3 969.1
10 19.07 СВ 2
{4}
н/о н/о +25.3 +13.3 47 +27 +27 жарко 1014.9 968.9
11 19.07 В 3
{7}
н/о н/о +26.1 +14.1 48 +28 +28 жарко 1014.6 968.7
12 19.07 СВ 3
{7}
н/о н/о +26.2 +14.8 49 +29 +29 жарко 1014.1 968.3
13 19.07 СВ 4
{7}
н/о н/о +26.8 +14.5 47 +29 +29 жарко 1013.7 968.0
14 19.07 СВ 4
{7}
н/о н/о +26.1 +14.3 48 +28 +28 жарко 1013.7 967.9
15 19.07 В 3
{7}
н/о н/о +27.0 +14.5 46 +29 +29 жарко 1013.4 967.7
16 19.07 СВ 4
{6}
н/о н/о +26.9 +13.4 43 +29 +29 жарко 1013.2 967.5
17 19.07 СВ 2
{6}
н/о н/о +26.5 +13.6 45 +29 +29 жарко 1013.3 967.5
18 19.07 СВ 2
{7}
н/о н/о +25.7 +13.1 46 +28 +28 жарко 1013.3 967.4 +27.0
19 19.07 ЮВ 1
{3}
н/о н/о +23.4 +14.4 57 +27 +27 душно 1013.8 967.5
20 19.07 Ю 1
{2}
н/о н/о +20.9 +15.5 71 +25 +25 комфорт 1014.6 967.9
21 19.07 ЮЗ 1
{3}
н/о н/о +18.8 +15.0 79 +21 +21 комфорт 1015.3 968.2
22 19.07 З 2
{2}
н/о н/о +17.3 +15.0 86 +18 +18 1015.8 968.4
23 19.07 ЮЗ 2
{4}
н/о н/о +19.2 +14.6 75 +21 +21 комфорт 1015.8 968.7
00 20.07 З 1
{4}
н/о н/о +17.9 +14.6 81 +19 +19 1015.8 968.5

 

Местоположение метеостанции Лауфенбург (Швейцария): широта 47.55 долгота 8.05 высота над уровнем моря 322 м.

В архиве по умолчанию представлена погода в Лауфенбурге за последнюю неделю. Архивные данные за месяц целиком и за предыдущие месяцы, начиная с января 2011 года, Вы можете получить, выбрав интересующий диапазон дат из раскрывающегося списка и нажав кнопку "Ввод!".


*Определитесь, кто Вы:
робот инопланетянин человек

Внимание! Время в таблицах - всемирное. Для получения местного времени необходимо прибавить поправку, которая равна 1 ч.

Смотрите также архив погоды в соседних городах и на ближайших метеорологических станциях:

Погода в Лайбштадте (Швейцария) (11 км)
Погода в Бругг-Вилдегге (Швейцария) (13 км)
Погода в Мёлине (Швейцария) (13 км)
Погода на Бецнау (Швейцария) (14 км)
Погода в Институте Пауля Шеррера (Швейцария) (14 км)
Погода в Рюненберге (Швейцария) (18 км)
Погода в Рейнфельдене (Швейцария) (19 км)
Погода в Букс-Зуре (Швейцария) (19 км)
Погода в Госгене (Швейцария) (22 км)
Погода на Легерне (Швейцария) (27 км)

Пояснения к столбцам:

Ветер - указаны скорость ветра в м/с - средняя за 10 мин, порывы в срок и между сроками (в фигурных скобках) и направление, откуда дует ветер: С - северный, СВ - северо-восточный, В - восточный, ЮВ - юго-восточный, Ю - южный, ЮЗ - юго-западный, З - западный, СЗ - северо-западный.
Видимость - горизонтальная дальность видимости в метрах или километрах. При видимости от 1 до 10 км при отсутствии осадков обычно наблюдается дымка, при ухудшении видимости до 1 км и менее - туман. В сухую погоду видимость может ухудшаться дымом, пылью или мглою.
Явления - указаны атмосферные явления, наблюдавшиеся в срок или в последний час перед сроком; фигурными скобками обозначены явления, наблюдавшиеся между сроками (за 1-3 часа до срока); квадратными скобками обозначены град или гололедные отложения с указанием их диаметра в мм.
Облачность - указаны через наклонную черту общая и нижняя облачность в баллах и высота нижней границы облаков в метрах; квадратными скобками обозначены формы облаков: Ci - перистые, Cs - перисто-слоистые, Cc - перисто-кучевые, Ac - высококучевые, As - высокослоистые, Sc - слоисто-кучевые, Ns - слоисто-дождевые, Cu - кучевые, Cb - кучево-дождевые. Подробнее классификацию облаков см. в Атласе облаков (PDF).
T - Температура воздуха - температура, измеренная на высоте 2 м над землей.
Td - Температура точки росы - температура, при понижении до которой содержащийся в воздухе водяной пар достигнет насыщения.
f - Относительная влажность воздуха - влажноcть воздуха, измеренная на высоте 2 м над землей.
Te - Эффективная температура - температура, которую ощущает одетый по сезону человек в тени. Характеристика душности погоды. При расчете учитывается влияние влажности воздуха и скорости ветра на теплоощущения человека.
Tes - Эффективная температура на солнце - температура, которую ощущает человек, с поправкой на солнечный нагрев. Характеристика знойности погоды. Зависит от высоты солнца над горизонтом, облачности и скорости ветра. Ночью, в пасмурную погоду, а также при ветре 12 м/с и более поправка равна нулю.
P - Атмосферное давление - приведенное к уровню моря атмосферное давление.
Po - Атмосферное давление - измеренное на уровне метеостанции атмосферное давление.
Tmin - Минимальная температура - минимум температуры воздуха на высоте 2 м над землей.
Tmax - Максимальная температура - максимум температуры воздуха на высоте 2 м над землей.
R - Количество осадков - Количество выпавших осадков за период времени, мм. При наведении курсора мыши на число - период времени, за который выпало указанное количество осадков.
R24 - Количество осадков - Количество выпавших осадков за 24 часа, мм.
S - Снежный покров - Высота снежного покрова, см. При наведении курсора мыши на число - состояние снежного покрова и степень покрытия местности в баллах.